Location: Unspecified
(0.0000°N, 0.0000°E)
Time: 08:38:41
(UTC+00:00)

Hubble Space Telescope - Visible Passes

Search period start: 18 July 2018 00:00
Search period end: 28 July 2018 00:00
Orbit: 537 x 541 km, 28.5° (Epoch: 17 July)

Date Brightness Start Highest point End Pass type
(mag) Time Alt. Az. Time Alt. Az. Time Alt. Az.
20 Jul 3.1 19:47:24 10° SSW 19:48:06 14° SSW 19:48:06 14° SSW visible
21 Jul 2.0 19:36:45 10° SW 19:39:16 29° SSW 19:39:16 29° SSW visible
22 Jul 0.8 19:26:12 10° SW 19:30:16 55° SSE 19:30:35 53° SE visible
23 Jul 3.8 05:42:21 10° N 05:43:47 12° NNE 05:45:14 10° NE visible
23 Jul 0.6 19:15:46 10° WSW 19:19:56 80° SSE 19:21:59 29° ENE visible
24 Jul 3.5 05:30:58 10° N 05:33:30 16° NNE 05:36:02 10° ENE visible
24 Jul 1.0 19:05:26 10° WSW 19:09:34 70° NNW 19:13:26 12° NE visible
25 Jul 3.2 05:20:01 10° NNW 05:23:11 21° NNE 05:26:23 10° E visible
25 Jul 1.7 18:55:13 10° WSW 18:59:13 48° NNW 19:03:13 10° NE visible
26 Jul 2.6 05:09:15 10° NNW 05:12:52 29° NNE 05:16:29 10° E visible
26 Jul 2.5 18:45:06 10° W 18:48:52 33° NNW 18:52:38 10° NE visible
27 Jul 1.9 04:58:37 10° NW 05:02:32 42° NNE 05:06:26 10° ESE visible
27 Jul 3.1 18:35:09 10° W 18:38:32 24° NNW 18:41:56 10° NNE visible
